Weather History for San Nicolas Island, CA

Change the Weather History Date:

Wednesday, November 20, 2013

  Actual Average Record
Temperature  
Mean Temperature 63 °F -  
Max Temperature 66 °F 61 °F 81 °F (2006)
Min Temperature 60 °F 51 °F 46 °F (2011)
Degree Days  
Heating Degree Days 2    
Growing Degree Days 13 (Base 50)    
Moisture  
Dew Point 57 °F    
Average Humidity 83    
Maximum Humidity 90    
Minimum Humidity 73    
Precipitation  
Precipitation 0.01 in - - ()
Sea Level Pressure  
Sea Level Pressure 29.92 in    
Wind  
Wind Speed 15 mph (WSW)    
Max Wind Speed 20 mph    
Max Gust Speed 21 mph    
Visibility 5 miles    
Events Fog , Rain    
Averages and records for this station are not official NWS values.
T = Trace of Precipitation, MM = Missing Value Source: NWS Daily Summary

Daily Weather History Graph

Daily Weather History Graph

Search for Another Location

Airport:

Trip Planner

Search our weather history database for the weather conditions in past years. The results will help you decide how hot, cold, wet, or windy it might be!

Date:

Astronomy

Nov. 20, 2013 Rise Set
Actual Time 6:33 AM PST 4:53 PM PST
Civil Twilight 6:07 AM PST 5:19 PM PST
Nautical Twilight 5:37 AM PST 5:49 PM PST
Astronomical Twilight 5:07 AM PST 6:19 PM PST
Moon 7:40 PM PST (11/20) 9:02 AM PST (11/20)
Length of Visible Light 11h 12m
Length of Day
10h 19m
Waning Gibbous, 91% of the Moon is Illuminated
Nov 20
Waning Gibbous
Nov 25
Last Quarter
Dec 2
New
Dec 9
First Quarter
Dec 17
Full

Hourly Weather History & Observations

Time (PST) Temp. Dew Point Humidity Pressure Visibility Wind Dir Wind Speed Gust Speed Precip Events Conditions
12:53 AM - - N/A% 29.98 in 10.0 mi West 19.6 mph - N/A   Scattered Clouds
1:17 AM - - N/A% 29.98 in 10.0 mi WNW 17.3 mph - N/A   Scattered Clouds
1:41 AM - - N/A% 29.97 in 10.0 mi WNW 17.3 mph - N/A   Mostly Cloudy
1:53 AM - - N/A% 29.96 in 10.0 mi WNW 19.6 mph - N/A   Mostly Cloudy
2:20 AM - - N/A% 29.96 in 10.0 mi WNW 18.4 mph - N/A   Mostly Cloudy
2:53 AM - - N/A% 29.96 in 10.0 mi WNW 16.1 mph - N/A   Overcast
3:16 AM - - N/A% 29.96 in 10.0 mi West 17.3 mph - N/A   Overcast
3:53 AM - - N/A% 29.95 in 10.0 mi West 17.3 mph - N/A   Overcast
4:37 AM - - N/A% 29.95 in 10.0 mi West 17.3 mph - N/A   Overcast
4:53 AM - - N/A% 29.95 in 10.0 mi West 16.1 mph - N/A   Overcast
5:03 AM - - N/A% 29.94 in 10.0 mi West 16.1 mph - N/A   Overcast
5:53 AM 60.1 °F 55.9 °F 86% 29.96 in 7.0 mi West 15.0 mph - N/A   Overcast
6:07 AM - - N/A% 29.96 in 10.0 mi WNW 17.3 mph - N/A   Overcast
6:35 AM - - N/A% 29.96 in 10.0 mi West 12.7 mph - N/A   Overcast
6:53 AM 60.1 °F 55.9 °F 86% 29.97 in 7.0 mi West 13.8 mph - N/A   Mostly Cloudy
7:53 AM 60.1 °F 55.9 °F 86% 29.97 in 7.0 mi West 13.8 mph - N/A   Mostly Cloudy
8:53 AM 63.0 °F 57.9 °F 84% 29.97 in 7.0 mi West 12.7 mph - N/A   Mostly Cloudy
9:53 AM 63.0 °F 57.0 °F 81% 29.98 in 7.0 mi SW 9.2 mph - N/A   Mostly Cloudy
10:53 AM 64.0 °F 57.0 °F 78% 29.97 in 7.0 mi WSW 12.7 mph - N/A   Scattered Clouds
11:03 AM 64.0 °F 57.0 °F 78% 29.95 in 7.0 mi WSW 11.5 mph 20.7 mph N/A   Scattered Clouds
11:53 AM 66.0 °F 57.0 °F 73% 29.93 in 7.0 mi WSW 13.8 mph - N/A   Scattered Clouds
12:53 PM 64.9 °F 57.9 °F 78% 29.91 in 7.0 mi SW 15.0 mph - N/A   Mostly Cloudy
1:53 PM 63.0 °F 57.9 °F 84% 29.90 in 4.0 mi SW 12.7 mph - N/A   Haze
1:56 PM 63.0 °F 57.9 °F 84% 29.90 in 2.0 mi SW 10.4 mph - N/A   Haze
2:05 PM 63.0 °F 57.9 °F 84% 29.90 in 1.5 mi SW 11.5 mph - 0.00 in   Drizzle
2:35 PM 63.0 °F 57.9 °F 84% 29.89 in 1.0 mi SSW 11.5 mph - 0.00 in Rain Light Rain
2:42 PM 63.0 °F 57.9 °F 84% 29.89 in 0.5 mi SSW 9.2 mph - 0.00 in Rain Light Rain
2:53 PM 63.0 °F 57.9 °F 84% 29.89 in 0.5 mi South 11.5 mph - 0.00 in Fog , Rain Light Rain
3:53 PM 62.1 °F 59.0 °F 90% 29.89 in 0.5 mi South 8.1 mph - 0.00 in Fog , Rain Light Rain
4:53 PM - - N/A% 29.88 in 0.2 mi South 6.9 mph - 0.01 in Fog Unknown
5:53 PM - - N/A% 29.88 in 0.2 mi SW 11.5 mph - 0.00 in Fog , Rain Light Rain
6:53 PM - - N/A% 29.88 in 1.2 mi WSW 10.4 mph - 0.00 in Fog , Rain Light Rain
7:20 PM - - N/A% 29.88 in 1.0 mi WSW 10.4 mph - 0.00 in Fog , Rain Light Rain
7:38 PM - - N/A% 29.88 in 0.8 mi SW 12.7 mph - 0.00 in Fog , Rain Light Rain
7:43 PM - - N/A% 29.88 in 1.0 mi SW 12.7 mph - 0.00 in Fog , Rain Light Rain
7:53 PM - - N/A% 29.88 in 1.0 mi SW 12.7 mph - 0.00 in Fog , Rain Light Rain
8:17 PM - - N/A% 29.89 in 1.0 mi WSW 10.4 mph - 0.00 in Fog , Rain Light Rain
8:53 PM - - N/A% 29.89 in 0.8 mi WSW 9.2 mph - 0.00 in Fog , Rain Light Rain
9:53 PM - - N/A% 29.89 in 0.5 mi West 12.7 mph - 0.00 in Fog , Rain Light Rain
10:35 PM - - N/A% 29.89 in 1.5 mi West 12.7 mph - 0.00 in Fog , Rain Light Rain
10:53 PM - - N/A% 29.89 in 0.5 mi WSW 13.8 mph - 0.00 in Fog , Rain Light Rain
11:53 PM - - N/A% 29.88 in 0.2 mi West 17.3 mph - 0.00 in Fog , Rain Light Rain